Weather History for Danville, VA

Change the Weather History Date:

Friday, September 28, 2012

  Actual Average Record
Temperature  
Mean Temperature 72 °F 65 °F  
Max Temperature 84 °F 75 °F 94 °F (1954)
Min Temperature 59 °F 56 °F 41 °F (1989)
Degree Days  
Heating Degree Days 0 2  
Month to date heating degree days 19 21  
Since 1 July heating degree days 19 21  
Cooling Degree Days 7 3  
Month to date cooling degree days 178 171  
Year to date cooling degree days 1563 1398  
Growing Degree Days 22 (Base 50)    
Moisture  
Dew Point 61 °F    
Average Humidity 71    
Maximum Humidity 93    
Minimum Humidity 48    
Precipitation  
Precipitation 0.36 in 0.14 in 1.46 in (2004)
Month to date precipitation 3.63 3.70  
Year to date precipitation 23.73 33.99  
Snow  
Snow 0.00 in - - ()
Month to date snowfall 0.0  
Since 1 July snowfall 0.0  
Since 1 September snowfall 0.0  
Snow Depth 0.00 in    
Sea Level Pressure  
Sea Level Pressure 30.04 in    
Wind  
Wind Speed 3 mph (WSW)    
Max Wind Speed 30 mph    
Max Gust Speed 41 mph    
Visibility 8 miles    
Events Rain , Thunderstorm    
T = Trace of Precipitation, MM = Missing Value Source: NWS Daily Summary

Daily Weather History Graph

Daily Weather History Graph

Search for Another Location

Airport:

Trip Planner

Search our weather history database for the weather conditions in past years. The results will help you decide how hot, cold, wet, or windy it might be!

Date:

Astronomy

Sep. 28, 2012 Rise Set
Actual Time 7:10 AM EDT 7:04 PM EDT
Civil Twilight 6:44 AM EDT 7:30 PM EDT
Nautical Twilight 6:14 AM EDT 8:00 PM EDT
Astronomical Twilight 5:44 AM EDT 8:30 PM EDT
Moon 6:05 PM EDT (9/28) 5:40 AM EDT (9/28)
Length of Visible Light 12h 45m
Length of Day
11h 54m
Waxing Gibbous, 98% of the Moon is Illuminated
Sep 28
Waxing Gibbous
Sep 29
Full
Oct 8
Last Quarter
Oct 15
New
Oct 21
First Quarter

Hourly Weather History & Observations

Time (EDT) Temp. Heat Index Dew Point Humidity Pressure Visibility Wind Dir Wind Speed Gust Speed Precip Events Conditions
12:53 AM 61.0 °F - 57.9 °F 90% 30.09 in 10.0 mi Calm Calm - N/A   Clear
1:53 AM 61.0 °F - 57.9 °F 90% 30.08 in 10.0 mi Calm Calm - N/A   Clear
2:53 AM 62.1 °F - 57.9 °F 86% 30.07 in 10.0 mi Calm Calm - N/A   Clear
3:53 AM 60.1 °F - 57.0 °F 90% 30.06 in 9.0 mi Calm Calm - N/A   Clear
4:53 AM 59.0 °F - 55.9 °F 90% 30.05 in 8.0 mi Calm Calm - N/A   Clear
5:53 AM 59.0 °F - 57.0 °F 93% 30.05 in 9.0 mi Calm Calm - N/A   Clear
6:53 AM 59.0 °F - 55.9 °F 90% 30.06 in 7.0 mi Calm Calm - N/A   Clear
7:53 AM 59.0 °F - 57.0 °F 93% 30.06 in 9.0 mi SSW 3.5 mph - N/A   Clear
8:53 AM 64.9 °F - 59.0 °F 81% 30.07 in 10.0 mi SSW 4.6 mph - N/A   Clear
9:53 AM 70.0 °F - 61.0 °F 73% 30.07 in 10.0 mi SSW 3.5 mph - N/A   Clear
10:53 AM 75.0 °F - 62.1 °F 64% 30.06 in 10.0 mi Calm Calm - N/A   Clear
11:53 AM 78.1 °F - 62.1 °F 58% 30.06 in 10.0 mi Calm Calm - N/A   Clear
12:53 PM 81.0 °F 82.5 °F 64.0 °F 56% 30.04 in 10.0 mi WSW 5.8 mph - N/A   Clear
1:53 PM 84.0 °F 84.9 °F 63.0 °F 49% 30.01 in 10.0 mi WSW 6.9 mph - N/A   Clear
3:07 PM 68.0 °F - 60.8 °F 78% 30.07 in 1.8 mi NW 23.0 mph 41.4 mph 0.10 in Rain , Thunderstorm Heavy Thunderstorms and Rain
3:17 PM 64.4 °F - 60.8 °F 88% 30.04 in 0.8 mi North 5.8 mph 31.1 mph 0.32 in Rain , Thunderstorm Thunderstorms and Rain
3:22 PM 64.4 °F - 60.8 °F 88% 30.03 in 3.0 mi North 5.8 mph - 0.33 in Rain , Thunderstorm Light Thunderstorms and Rain
3:51 PM 69.8 °F - 62.6 °F 78% 30.02 in 10.0 mi West 4.6 mph - 0.36 in Rain Light Rain
3:53 PM 70.0 °F - 64.0 °F 81% 29.99 in 10.0 mi West 4.6 mph - 0.36 in   Mostly Cloudy
4:53 PM 71.1 °F - 64.0 °F 78% 30.00 in 10.0 mi West 4.6 mph - N/A   Overcast
5:53 PM 72.0 °F - 64.9 °F 78% 29.99 in 10.0 mi Calm Calm - N/A   Mostly Cloudy
6:53 PM 69.1 °F - 66.0 °F 90% 30.00 in 10.0 mi Calm Calm - 0.00 in Rain Light Rain
7:53 PM 68.0 °F - 64.9 °F 90% 30.00 in 10.0 mi SSW 3.5 mph - 0.00 in   Overcast
8:53 PM 68.0 °F - 64.9 °F 90% 30.00 in 8.0 mi Calm Calm - N/A   Partly Cloudy
9:53 PM 66.9 °F - 64.9 °F 93% 30.00 in 7.0 mi SW 4.6 mph - N/A   Overcast
10:53 PM 66.9 °F - 64.9 °F 93% 29.99 in 5.0 mi Calm Calm - N/A   Mostly Cloudy
11:53 PM 66.9 °F - 64.9 °F 93% 29.99 in 6.0 mi Calm Calm - N/A   Overcast